TimeCST,TemperatureF,Dew PointF,Humidity,Sea Level PressureIn,VisibilityMPH,Wind Direction,Wind SpeedMPH,Gust SpeedMPH,PrecipitationIn,Events,Conditions,WindDirDegrees,DateUTC
12:14 AM,26.6,23.0,86,29.64,10.0,WSW,10.4,-,N/A,,Clear,240,2013-02-05 06:14:00
12:34 AM,26.6,23.0,86,29.64,10.0,WSW,8.1,-,N/A,,Mostly Cloudy,250,2013-02-05 06:34:00
12:55 AM,28.4,24.8,86,29.64,10.0,WSW,12.7,-,N/A,,Overcast,240,2013-02-05 06:55:00
1:15 AM,28.4,24.8,86,29.64,10.0,SW,10.4,-,N/A,,Overcast,230,2013-02-05 07:15:00
1:35 AM,28.4,26.6,93,29.66,10.0,West,8.1,-,N/A,Snow,Snow,260,2013-02-05 07:35:00
1:54 AM,30.2,26.6,86,29.65,0.2,WSW,10.4,-,N/A,Snow,Snow,250,2013-02-05 07:54:00
2:14 AM,30.2,28.4,93,29.66,1.8,West,8.1,-,N/A,Snow,Light Snow,270,2013-02-05 08:14:00
2:35 AM,30.2,30.2,100,29.66,2.0,West,6.9,-,N/A,Snow,Light Snow,280,2013-02-05 08:35:00
2:55 AM,32.0,30.2,93,29.66,10.0,West,5.8,-,N/A,Snow,Light Snow,270,2013-02-05 08:55:00
3:15 AM,32.0,30.2,93,29.66,7.0,West,6.9,-,N/A,Snow,Light Snow,280,2013-02-05 09:15:00
3:35 AM,32.0,28.4,87,29.66,7.0,WNW,6.9,-,N/A,Snow,Light Snow,290,2013-02-05 09:35:00
3:54 AM,32.0,30.2,93,29.67,7.0,WNW,9.2,-,N/A,,Overcast,290,2013-02-05 09:54:00
4:14 AM,32.0,30.2,93,29.69,5.0,WNW,9.2,-,N/A,Snow,Light Snow,300,2013-02-05 10:14:00
4:35 AM,32.0,30.2,93,29.70,7.0,NW,9.2,-,N/A,Snow,Light Snow,310,2013-02-05 10:35:00
4:54 AM,32.0,30.2,93,29.71,7.0,WNW,10.4,-,N/A,,Overcast,300,2013-02-05 10:54:00
5:15 AM,30.2,28.4,93,29.72,10.0,NW,9.2,-,N/A,,Overcast,320,2013-02-05 11:15:00
5:34 AM,30.2,28.4,93,29.73,5.0,NNW,16.1,-,N/A,,Overcast,330,2013-02-05 11:34:00
5:54 AM,30.2,28.4,93,29.74,3.0,NW,12.7,-,N/A,Snow,Light Snow,320,2013-02-05 11:54:00
6:15 AM,28.4,26.6,93,29.74,10.0,NW,10.4,-,N/A,Snow,Light Snow,310,2013-02-05 12:15:00
6:35 AM,28.4,26.6,93,29.76,10.0,NW,19.6,23.0,N/A,,Overcast,320,2013-02-05 12:35:00
6:55 AM,23.0,21.2,93,29.78,7.0,NNW,16.1,23.0,N/A,,Overcast,330,2013-02-05 12:55:00
7:15 AM,19.4,17.6,93,29.80,10.0,NNW,18.4,26.5,N/A,,Overcast,340,2013-02-05 13:15:00
7:34 AM,17.6,15.8,93,29.82,7.0,NNW,17.3,25.3,N/A,,Overcast,330,2013-02-05 13:34:00
7:54 AM,15.8,14.0,93,29.84,10.0,NNW,13.8,23.0,N/A,,Overcast,330,2013-02-05 13:54:00
8:14 AM,15.8,12.2,86,29.86,10.0,NNW,18.4,23.0,N/A,,Overcast,330,2013-02-05 14:14:00
8:55 AM,14.0,10.4,86,29.89,10.0,NNW,19.6,24.2,N/A,,Overcast,330,2013-02-05 14:55:00
9:14 AM,14.0,10.4,86,29.91,10.0,NNW,16.1,23.0,N/A,,Overcast,340,2013-02-05 15:14:00
9:34 AM,14.0,10.4,86,29.92,10.0,NNW,16.1,23.0,N/A,,Overcast,330,2013-02-05 15:34:00
10:14 AM,14.0,8.6,79,29.95,10.0,NW,18.4,25.3,N/A,,Overcast,320,2013-02-05 16:14:00
10:35 AM,12.2,8.6,85,29.96,10.0,NW,15.0,24.2,N/A,,Overcast,320,2013-02-05 16:35:00
10:54 AM,12.2,8.6,85,29.97,7.0,NW,17.3,-,N/A,Snow,Light Snow,320,2013-02-05 16:54:00
11:15 AM,12.2,6.8,79,29.98,10.0,NW,16.1,20.7,N/A,,Overcast,320,2013-02-05 17:15:00
11:34 AM,12.2,6.8,79,30.00,10.0,NNW,16.1,21.9,N/A,,Overcast,330,2013-02-05 17:34:00
11:55 AM,12.2,6.8,79,30.01,10.0,NW,12.7,21.9,N/A,,Overcast,320,2013-02-05 17:55:00
12:15 PM,12.2,6.8,79,30.02,10.0,NW,15.0,-,N/A,,Overcast,310,2013-02-05 18:15:00
12:35 PM,10.4,6.8,85,30.02,10.0,WNW,12.7,16.1,N/A,,Overcast,300,2013-02-05 18:35:00
12:55 PM,12.2,6.8,79,30.03,10.0,NW,12.7,-,N/A,,Scattered Clouds,320,2013-02-05 18:55:00
1:15 PM,12.2,6.8,79,30.03,10.0,NW,12.7,-,N/A,,Clear,320,2013-02-05 19:15:00
1:36 PM,10.4,6.8,85,30.03,10.0,NW,12.7,-,N/A,,Scattered Clouds,320,2013-02-05 19:36:00
1:54 PM,10.4,5.0,79,30.04,10.0,NW,10.4,-,N/A,,Mostly Cloudy,310,2013-02-05 19:54:00
2:15 PM,10.4,6.8,85,30.04,10.0,NW,10.4,-,N/A,,Overcast,310,2013-02-05 20:15:00
2:35 PM,12.2,6.8,79,30.03,10.0,NW,10.4,-,N/A,,Scattered Clouds,320,2013-02-05 20:35:00
2:55 PM,12.2,6.8,79,30.04,10.0,NW,9.2,-,N/A,,Clear,310,2013-02-05 20:55:00
3:15 PM,12.2,6.8,79,30.04,10.0,NW,10.4,-,N/A,,Clear,320,2013-02-05 21:15:00
3:34 PM,12.2,6.8,79,30.04,10.0,NW,8.1,-,N/A,,Clear,310,2013-02-05 21:34:00
3:55 PM,10.4,5.0,79,30.05,10.0,WNW,8.1,-,N/A,,Clear,290,2013-02-05 21:55:00
4:14 PM,10.4,3.2,73,30.06,10.0,WNW,4.6,-,N/A,,Clear,290,2013-02-05 22:14:00
4:35 PM,8.6,3.2,79,30.06,10.0,NNW,5.8,-,N/A,,Clear,330,2013-02-05 22:35:00
4:55 PM,8.6,3.2,79,30.06,10.0,NNW,4.6,-,N/A,,Clear,340,2013-02-05 22:55:00
5:15 PM,8.6,3.2,79,30.06,10.0,NNW,4.6,-,N/A,,Mostly Cloudy,340,2013-02-05 23:15:00
5:35 PM,8.6,3.2,79,30.06,10.0,NNW,3.5,-,N/A,,Overcast,330,2013-02-05 23:35:00
5:55 PM,8.6,5.0,85,30.07,10.0,NNW,4.6,-,N/A,,Overcast,330,2013-02-05 23:55:00
6:14 PM,8.6,5.0,85,30.07,10.0,Calm,Calm,-,N/A,,Overcast,0,2013-02-06 00:14:00
6:34 PM,8.6,5.0,85,30.07,10.0,NNW,3.5,-,N/A,,Overcast,330,2013-02-06 00:34:00
6:55 PM,10.4,5.0,79,30.07,10.0,Calm,Calm,-,N/A,,Overcast,0,2013-02-06 00:55:00
7:14 PM,10.4,5.0,79,30.06,10.0,Calm,Calm,-,N/A,,Overcast,0,2013-02-06 01:14:00
7:34 PM,10.4,5.0,79,30.07,10.0,Calm,Calm,-,N/A,,Overcast,0,2013-02-06 01:34:00
7:54 PM,10.4,5.0,79,30.08,10.0,Calm,Calm,-,N/A,,Overcast,0,2013-02-06 01:54:00
8:14 PM,10.4,5.0,79,30.07,10.0,Calm,Calm,-,N/A,,Overcast,0,2013-02-06 02:14:00
8:34 PM,10.4,6.8,85,30.07,10.0,Calm,Calm,-,N/A,,Overcast,0,2013-02-06 02:34:00
8:55 PM,10.4,5.0,79,30.07,10.0,Calm,Calm,-,N/A,,Overcast,0,2013-02-06 02:55:00
9:14 PM,10.4,5.0,79,30.07,10.0,Calm,Calm,-,N/A,,Overcast,0,2013-02-06 03:14:00
9:34 PM,10.4,5.0,79,30.06,10.0,Calm,Calm,-,N/A,,Overcast,0,2013-02-06 03:34:00
9:55 PM,10.4,5.0,79,30.06,10.0,SE,3.5,-,N/A,,Overcast,140,2013-02-06 03:55:00
10:15 PM,10.4,6.8,85,30.06,10.0,SE,3.5,-,N/A,,Overcast,140,2013-02-06 04:15:00
10:35 PM,10.4,6.8,85,30.05,10.0,SE,6.9,-,N/A,,Overcast,130,2013-02-06 04:35:00
10:55 PM,10.4,6.8,85,30.06,10.0,Calm,Calm,-,N/A,,Mostly Cloudy,0,2013-02-06 04:55:00
11:15 PM,8.6,6.8,92,30.06,10.0,South,3.5,-,N/A,,Scattered Clouds,180,2013-02-06 05:15:00
11:35 PM,8.6,5.0,85,30.07,10.0,South,5.8,-,N/A,,Clear,170,2013-02-06 05:35:00
11:55 PM,8.6,5.0,85,30.07,10.0,SSE,4.6,-,N/A,,Clear,160,2013-02-06 05:55:00